Погода в Киунге

Папуа-Новая Гвинея     6°07′09″S   141°17′48″E
темп.,
°C
ветер,
м/с
пор.,
м/с
влажн.,
%
обл.,
%
осадки,
мм/ч
давл.,
гПа
погр.,
м
10 августа, ср
ср1001:00+22юв119981 0.1 101049
04:00+21вюв0399100 0.3 1009192
07:00+21юв1399100 0.0 1011158
10:00+23юв2695100 0.1 1012476
13:00+29вюв1266100 0.3 10101150
16:00+27юв1390100 1.4 1008354
19:00+23ююв1198100 3.2 101037
22:00+23юв2109986 5.4 1012402
11 августа, чт
чт1101:00+23юв1999100 0.3 1011670
04:00+23ююв1899100 2.0 1011632
07:00+22юв1799100 0.4 1012506
10:00+23ююв1598100 0.6 1013355
13:00+26юв258496 0.8 1010803
16:00+26юв249048 2.9 1008567
19:00+23вюв119817 1.6 101016
22:00+22вюв119923 3.0 101220
12 августа, пт
пт1201:00+22вюв1310036 0.0 1011122
04:00+22юв1110075 0.0 101165
07:00+22ю02100100 0.0 1012121
10:00+23ююв0399100 0.1 1013278
13:00+26ююв128964 1.3 1010681
16:00+26ю139237 3.8 1008492
19:00+23ююв119884 3.7 101013
22:00+23юв1599100 9.6 1012140
13 августа, сб
сб1301:00+22ссв01100100 6.1 101165
04:00+22зсз00100100 12.9 101045
07:00+22ю13100100 11.3 1012251
10:00+23ююв159999 22.4 1013409
13:00+23с139999 8.3 1012273
16:00+24сз2494100 8.7 1010418
19:00+23ссз0198100 0.1 101128
22:00+22ссв1199100 0.1 101323
14 августа, вс
вс1401:00+22всв0010099 0.3 101222
04:00+21в1110068 0.3 101119
07:00+21в129970 0.1 101260
10:00+23вюв129574 0.2 1013272
13:00+29вюв236730 0.3 10101038
16:00+27юв138224 2.5 1008707
19:00+23ююв119859 3.9 100918
22:00+22вюв129957 9.0 101254